Date String (YYYY-MM-DD hh:mm:ss) UTC,Instrument flags,Ambient pressure (hPa),Sample flow (lpm),Bypass flow (lpm),Sample temperature (°C),Ambient temperature (°C),ASC tube jacket temperature (°C),LED temperature (°C),Box temperature (°C),Sample RH (%),Span deviation,Mass concentration (μg/m³),Mass concentration (μg/m³),Mass concentration (μg/m³)
DateTimeUTC,F1_M11,P_M11,Q1_M11,Q2_M11,T1_M11,T2_M11,T3_M11,T4_M11,T5_M11,U1_M11,ZSPAN_M11,X0_M11,X2_M11,X1_M11
2021-11-20 18:00:00,,0827.0,5.01,0.00,27.5,26.7,00.0,36.6,29.3,10.1,0000.0,0013.26,0004.70,0003.81
2021-11-20 18:01:00,,0827.0,4.99,0.00,27.5,26.7,00.0,36.6,29.3,10.1,0000.0,0013.88,0004.75,0003.83
2021-11-20 18:02:00,,0826.9,5.00,0.00,27.5,26.7,00.0,36.6,29.3,10.2,0000.0,0014.01,0004.78,0003.86
2021-11-20 18:03:00,,0827.0,5.01,0.00,27.5,26.7,00.0,36.5,29.3,10.2,0000.0,0014.11,0004.74,0003.88
2021-11-20 18:04:00,,0827.0,5.00,0.00,27.5,26.8,00.0,36.5,29.3,10.1,0000.0,0013.86,0004.75,0003.90
2021-11-20 18:05:00,,0827.1,4.99,0.00,27.5,26.7,00.0,36.5,29.3,10.0,0000.0,0012.94,0004.82,0003.94
2021-11-20 18:06:00,,0826.9,5.01,0.00,27.5,26.7,00.0,36.5,29.3,10.1,0000.0,0012.18,0004.89,0003.98
2021-11-20 18:07:00,,0826.9,4.98,0.00,27.5,26.7,00.0,36.5,29.2,10.2,0000.0,0011.40,0004.96,0004.02
2021-11-20 18:08:00,,0827.0,5.00,0.00,27.5,26.7,00.0,36.5,29.2,10.1,0000.0,0011.54,0005.02,0004.06
2021-11-20 18:09:00,,0826.8,5.01,0.00,27.5,26.7,00.0,36.5,29.3,10.1,0000.0,0011.51,0005.05,0004.10
2021-11-20 18:10:00,,0826.7,5.00,0.00,27.5,26.7,00.0,36.5,29.2,10.1,0000.0,0011.48,0005.05,0004.13
2021-11-20 18:11:00,,0826.7,5.00,0.00,27.4,26.7,00.0,36.5,29.2,10.1,0000.0,0011.43,0005.10,0004.18
2021-11-20 18:12:00,,0826.7,4.99,0.00,27.4,26.7,00.0,36.5,29.2,10.1,0000.0,0011.36,0005.15,0004.22
2021-11-20 18:13:00,,0826.6,5.01,0.00,27.4,26.7,00.0,36.5,29.2,10.1,0000.0,0011.20,0005.18,0004.27
2021-11-20 18:14:00,,0826.7,5.00,0.00,27.4,26.7,00.0,36.5,29.2,10.1,0000.0,0011.09,0005.27,0004.31
2021-11-20 18:15:00,,0826.7,5.00,0.00,27.4,26.7,00.0,36.5,29.1,10.1,0000.0,0011.79,0005.39,0004.34
2021-11-20 18:16:00,,0826.7,5.01,0.00,27.4,26.6,00.0,36.5,29.1,10.1,0000.0,0012.08,0005.41,0004.36
2021-11-20 18:17:00,,0826.7,4.99,0.00,27.4,26.6,00.0,36.5,29.1,10.2,0000.0,0012.72,0005.41,0004.38
2021-11-20 18:18:00,,0826.7,4.99,0.00,27.4,26.6,00.0,36.4,29.1,10.2,0000.0,0013.41,0005.39,0004.40
2021-11-20 18:19:00,,0826.7,5.00,0.00,27.4,26.6,00.0,36.4,29.1,10.2,0000.0,0013.13,0005.36,0004.41
2021-11-20 18:20:00,,0826.7,5.00,0.00,27.3,26.6,00.0,36.4,29.1,10.2,0000.0,0013.23,0005.38,0004.41
2021-11-20 18:21:00,,0826.7,5.00,0.00,27.3,26.6,00.0,36.4,29.1,10.1,0000.0,0013.28,0005.38,0004.40
2021-11-20 18:22:00,,0826.7,4.99,0.00,27.3,26.6,00.0,36.4,29.1,10.1,0000.0,0014.14,0005.38,0004.39
2021-11-20 18:23:00,,0826.7,5.01,0.00,27.3,26.6,00.0,36.4,29.1,10.1,0000.0,0014.19,0005.32,0004.37
2021-11-20 18:24:00,,0826.7,5.00,0.00,27.3,26.6,00.0,36.4,29.1,10.2,0000.0,0014.27,0005.28,0004.35
2021-11-20 18:25:00,,0826.7,5.01,0.00,27.3,26.6,00.0,36.4,29.1,10.1,0000.0,0014.08,0005.25,0004.33
2021-11-20 18:26:00,,0826.7,4.99,0.00,27.3,26.6,00.0,36.4,29.1,10.0,0000.0,0013.54,0005.14,0004.33
2021-11-20 18:27:00,,0826.7,5.00,0.00,27.3,26.6,00.0,36.4,29.1,10.1,0000.0,0013.33,0005.08,0004.32
2021-11-20 18:28:00,,0826.7,5.00,0.00,27.3,26.6,00.0,36.4,29.1,10.0,0000.0,0013.31,0005.05,0004.31
2021-11-20 18:29:00,,0826.7,5.00,0.00,27.3,26.6,00.0,36.3,29.0,10.0,0000.0,0012.54,0005.07,0004.31
2021-11-20 18:30:00,,0826.7,5.00,0.00,27.3,26.5,00.0,36.3,29.0,10.0,0000.0,0012.92,0005.13,0004.34
2021-11-20 18:31:00,,0826.6,5.01,0.00,27.3,26.5,00.0,36.3,29.0,10.1,0000.0,0012.96,0005.18,0004.36
2021-11-20 18:32:00,,0826.7,4.99,0.00,27.3,26.5,00.0,36.3,29.0,10.1,0000.0,0013.66,0005.20,0004.38
2021-11-20 18:33:00,,0826.7,5.01,0.00,27.3,26.5,00.0,36.3,29.1,10.1,0000.0,0013.63,0005.16,0004.39
2021-11-20 18:34:00,,0826.7,5.00,0.00,27.3,26.5,00.0,36.3,29.1,10.1,0000.0,0013.14,0005.20,0004.42
2021-11-20 18:35:00,,0826.7,5.01,0.00,27.3,26.5,00.0,36.3,29.1,10.1,0000.0,0012.99,0005.30,0004.45
2021-11-20 18:36:00,,0826.7,4.99,0.00,27.3,26.5,00.0,36.3,29.1,10.1,0000.0,0013.54,0005.33,0004.48
2021-11-20 18:37:00,,0826.6,5.00,0.00,27.3,26.5,00.0,36.3,29.1,10.2,0000.0,0015.23,0005.38,0004.50
2021-11-20 18:38:00,,0826.6,5.02,0.00,27.3,26.6,00.0,36.3,29.1,10.2,0000.0,0015.17,0005.44,0004.52
2021-11-20 18:39:00,,0826.6,4.99,0.00,27.3,26.6,00.0,36.3,29.1,10.1,0000.0,0014.89,0005.49,0004.56
2021-11-20 18:40:00,,0826.6,5.01,0.00,27.3,26.6,00.0,36.3,29.1,10.1,0000.0,0014.75,0005.52,0004.57
2021-11-20 18:41:00,,0826.5,5.00,0.00,27.3,26.6,00.0,36.3,29.2,10.2,0000.0,0014.51,0005.55,0004.59
2021-11-20 18:42:00,,0826.5,4.99,0.00,27.3,26.6,00.0,36.3,29.2,10.1,0000.0,0015.84,0005.58,0004.58
2021-11-20 18:43:00,,0826.5,5.00,0.00,27.4,26.6,00.0,36.3,29.2,10.0,0000.0,0015.85,0005.59,0004.56
2021-11-20 18:44:00,,0826.5,5.00,0.00,27.3,26.6,00.0,36.3,29.2,10.1,0000.0,0015.25,0005.62,0004.55
2021-11-20 18:45:00,,0826.5,5.01,0.00,27.3,26.6,00.0,36.3,29.2,10.1,0003.1,0015.42,0005.64,0004.52
2021-11-20 18:46:00,,0826.5,4.99,0.00,27.3,26.6,00.0,36.3,29.1,10.1,0005.1,0015.18,0005.55,0004.49
2021-11-20 18:47:00,,0826.5,5.01,0.00,27.3,26.6,00.0,36.3,29.1,10.0,0004.2,0014.94,0005.49,0004.44
2021-11-20 18:48:00,,0826.5,4.99,0.00,27.3,26.6,00.0,36.3,29.1,10.1,0000.9,0014.04,0005.44,0004.39
2021-11-20 18:49:00,,0826.5,5.00,0.00,27.3,26.6,00.0,36.3,29.1,10.1,0000.0,0013.36,0005.38,0004.33
2021-11-20 18:50:00,,0826.5,5.01,0.00,27.3,26.6,00.0,36.3,29.1,10.1,0000.0,0013.20,0005.30,0004.26
2021-11-20 18:51:00,,0826.4,4.99,0.00,27.3,26.6,00.0,36.3,29.1,10.1,0000.0,0013.22,0005.21,0004.18
2021-11-20 18:52:00,,0826.4,5.00,0.00,27.3,26.6,00.0,36.3,29.1,10.2,0000.0,0013.43,0005.12,0004.10
2021-11-20 18:53:00,,0826.3,5.00,0.00,27.3,26.6,00.0,36.3,29.1,10.2,0000.0,0012.42,0005.02,0004.03
2021-11-20 18:54:00,,0826.3,5.01,0.00,27.3,26.5,00.0,36.3,29.1,10.2,0000.0,0012.25,0004.94,0003.97
2021-11-20 18:55:00,,0826.2,5.01,0.00,27.3,26.5,00.0,36.3,29.1,10.3,0000.0,0013.41,0004.92,0003.93
2021-11-20 18:56:00,,0826.2,5.00,0.00,27.3,26.5,00.0,36.3,29.1,10.4,0000.0,0014.13,0004.88,0003.89
2021-11-20 18:57:00,,0826.2,5.00,0.00,27.3,26.5,00.0,36.3,29.1,10.3,0000.0,0014.28,0004.81,0003.84
2021-11-20 18:58:00,,0826.2,4.99,0.00,27.3,26.5,00.0,36.3,29.1,10.3,0000.0,0014.76,0004.76,0003.81
2021-11-20 18:59:00,,0826.2,5.00,0.00,27.3,26.6,00.0,36.3,29.1,10.3,0000.0,0014.70,0004.72,0003.79
